2023/01/30 00:00:00,47.5,-4.5
2023/01/30 00:10:00,47.4,-4.4
2023/01/30 00:20:00,47.4,-4.0
2023/01/30 00:30:00,47.3,-3.8
2023/01/30 00:40:00,47.2,-3.9
2023/01/30 00:50:00,47.2,-4.3
2023/01/30 01:00:00,47.2,-4.3
2023/01/30 01:10:00,47.2,-4.3
2023/01/30 01:20:00,47.2,-3.8
2023/01/30 01:30:00,47.2,-3.6
2023/01/30 01:40:00,47.2,-3.5
2023/01/30 01:50:00,47.2,-4.1
2023/01/30 02:00:00,47.2,-4.0
2023/01/30 02:10:00,47.2,-4.2
2023/01/30 02:20:00,47.1,-3.9
2023/01/30 02:30:00,47.1,-4.7
2023/01/30 02:40:00,47.1,-3.9
2023/01/30 02:50:00,47.1,-4.3
2023/01/30 03:00:00,47.1,-4.5
2023/01/30 03:10:00,47.1,-4.3
2023/01/30 03:20:00,47.0,-4.6
2023/01/30 03:30:00,47.0,-4.3
2023/01/30 03:40:00,47.0,-4.3
2023/01/30 03:50:00,47.0,-4.7
2023/01/30 04:00:00,47.0,-4.4
2023/01/30 04:10:00,47.0,-4.5
2023/01/30 04:20:00,47.0,-4.1
2023/01/30 04:30:00,46.9,-4.3
2023/01/30 04:40:00,46.9,-3.6
2023/01/30 04:50:00,46.9,-3.6
2023/01/30 05:00:00,46.9,-3.8
2023/01/30 05:10:00,46.8,-3.4
2023/01/30 05:20:00,46.7,-3.9
2023/01/30 05:30:00,46.7,-3.4
2023/01/30 05:40:00,46.6,-3.4
2023/01/30 05:50:00,46.6,-3.6
2023/01/30 06:00:00,46.8,-3.3
2023/01/30 06:10:00,47.2,-3.5
2023/01/30 06:20:00,47.2,-3.5
2023/01/30 06:30:00,47.2,-3.3
2023/01/30 06:40:00,47.2,-3.2
2023/01/30 06:50:00,47.2,-3.7
2023/01/30 07:00:00,47.1,-3.2
2023/01/30 07:10:00,47.1,-3.3
2023/01/30 07:20:00,47.4,-3.9
2023/01/30 07:30:00,47.6,-4.1
2023/01/30 07:40:00,47.4,-3.7
2023/01/30 07:50:00,47.4,-3.1
2023/01/30 08:00:00,47.3,-3.1
2023/01/30 08:10:00,47.1,-3.1
2023/01/30 08:20:00,47.1,-2.6
2023/01/30 08:30:00,47.2,-2.4
2023/01/30 08:40:00,48.1,-2.1
2023/01/30 08:50:00,48.6,-2.3
2023/01/30 09:00:00,49.0,-2.1
2023/01/30 09:10:00,49.6,-1.6
2023/01/30 09:20:00,50.1,-1.5
2023/01/30 09:30:00,51.0,-0.7
2023/01/30 09:40:00,51.2,-0.4
2023/01/30 09:50:00,51.5,-0.4
2023/01/30 10:00:00,52.0,-0.4
2023/01/30 10:10:00,53.1, 0.4
2023/01/30 10:20:00,53.4, 0.5
2023/01/30 10:30:00,53.4, 1.0
2023/01/30 10:40:00,53.7, 0.4
2023/01/30 10:50:00,53.8, 0.4
2023/01/30 11:00:00,54.2, 0.3
2023/01/30 11:10:00,54.7, 0.7
2023/01/30 11:20:00,54.9, 0.4
2023/01/30 11:30:00,55.1, 0.0
2023/01/30 11:40:00,55.4, 0.0
2023/01/30 11:50:00,55.1, 0.5
2023/01/30 12:00:00,55.4, 0.4
2023/01/30 12:10:00,55.6, 0.2
2023/01/30 12:20:00,55.9, 0.9
2023/01/30 12:30:00,56.0, 0.7
2023/01/30 12:40:00,56.4, 0.5
2023/01/30 12:50:00,56.7, 0.4
2023/01/30 13:00:00,56.7, 0.1
2023/01/30 13:10:00,57.2, 0.6
2023/01/30 13:20:00,58.0, 0.5
2023/01/30 13:30:00,57.6, 0.4
2023/01/30 13:40:00,57.5, 0.4
2023/01/30 13:50:00,57.8, 1.6
2023/01/30 14:00:00,57.7, 0.9
2023/01/30 14:10:00,57.2, 2.8
2023/01/30 14:20:00,57.1, 2.7
2023/01/30 14:30:00,57.2, 0.4
2023/01/30 14:40:00,57.1, 0.4
2023/01/30 14:50:00,56.8, 0.7
2023/01/30 15:00:00,56.6, 1.5
2023/01/30 15:10:00,56.6, 1.0
2023/01/30 15:20:00,56.5, 0.4
2023/01/30 15:30:00,56.4, 0.7
2023/01/30 15:40:00,56.1, 0.7
2023/01/30 15:50:00,56.2, 0.0
2023/01/30 16:00:00,56.7, 0.0
2023/01/30 16:10:00,57.0, 0.1
2023/01/30 16:20:00,56.9,-0.2
2023/01/30 16:30:00,57.2,-0.1
2023/01/30 16:40:00,57.6,-0.3
2023/01/30 16:50:00,57.9,-0.4
2023/01/30 17:00:00,58.1,-0.5
2023/01/30 17:10:00,58.2,-0.2
2023/01/30 17:20:00,58.0,-0.3
2023/01/30 17:30:00,58.0,-0.5
2023/01/30 17:40:00,57.8,-0.4
2023/01/30 17:50:00,57.8,-0.7
2023/01/30 18:00:00,57.9,-0.7
2023/01/30 18:10:00,58.3,-0.8
2023/01/30 18:20:00,58.8,-0.4
2023/01/30 18:30:00,60.2,-0.5
2023/01/30 18:40:00,60.2,-0.7
2023/01/30 18:50:00,60.2,-1.0
2023/01/30 19:00:00,60.0,-0.7
2023/01/30 19:10:00,60.0,-0.9
2023/01/30 19:20:00,60.0,-0.5
2023/01/30 19:30:00,59.8,-0.9
2023/01/30 19:40:00,59.7,-0.6
2023/01/30 19:50:00,59.3,-0.8
2023/01/30 20:00:00,59.4,-0.9
2023/01/30 20:10:00,59.8,-1.2
2023/01/30 20:20:00,60.0,-0.9
2023/01/30 20:30:00,60.0,-0.9
2023/01/30 20:40:00,59.9,-1.0
2023/01/30 20:50:00,60.3,-1.0
2023/01/30 21:00:00,61.0,-0.9
2023/01/30 21:10:00,61.4,-0.8
2023/01/30 21:20:00,61.6,-1.0
2023/01/30 21:30:00,61.3,-1.1
2023/01/30 21:40:00,61.0,-1.4
2023/01/30 21:50:00,60.9,-1.4
2023/01/30 22:00:00,60.7,-1.3
2023/01/30 22:10:00,60.7,-1.0
2023/01/30 22:20:00,60.6,-1.4
2023/01/30 22:30:00,60.6,-1.2
2023/01/30 22:40:00,60.5,-1.4
2023/01/30 22:50:00,60.5,-1.2
2023/01/30 23:00:00,60.3,-1.1
2023/01/30 23:10:00,60.0,-0.9
2023/01/30 23:20:00,60.0,-1.2
2023/01/30 23:30:00,59.9,-1.4
2023/01/30 23:40:00,59.5,-2.1
2023/01/30 23:50:00,59.2,-1.4
